Wind_Speed
5 5 4 5 5 5 5 5 5 5 5 5 5 5 5 6 6 6 6 6 7 7 7 7 7 7 8 8 9 9 10 10 10 11 11 11 12 13 13 14 15 15 16
5 5 5 5 5 5 5 5 6 6 6 6 6 6 7 7 7 8 8 7 7 8 8 8 8 8 9 9 9 10 10 11 11 12 12 13 14 15 15 16 16 16 17
7 7 7 7 7 7 7 7 6 6 7 6 6 7 8 8 8 7 7 8 8 8 8 8 8 9 9 10 10 11 11 11 12 13 14 15 16 16 16 17 17 18 19
7 8 8 7 7 7 8 8 8 8 7 7 7 8 8 7 7 7 7 8 9 8 9 9 10 10 10 11 11 11 12 12 13 14 15 16 17 17 18 19 19 20 21
8 8 9 8 8 8 8 8 8 8 8 8 8 8 8 7 7 8 8 8 8 9 9 10 11 11 11 11 12 13 13 14 15 15 16 17 18 19 20 21 21 22 22
9 9 9 9 9 9 9 9 9 9 9 9 9 8 8 8 8 8 9 9 9 10 10 11 12 12 12 13 14 14 14 15 16 17 18 19 20 20 21 22 23 23 24
11 10 10 10 11 11 11 10 10 10 10 9 9 9 9 9 9 9 10 10 11 12 12 12 13 13 14 14 15 16 16 17 18 19 19 20 21 21 22 23 24 25 26
12 12 12 12 12 12 11 12 11 11 11 10 10 10 10 10 11 11 11 12 13 13 14 14 14 14 15 16 16 17 18 19 19 19 20 21 22 22 24 25 25 26 27
13 13 13 12 13 13 13 13 13 13 13 13 13 13 13 13 14 14 14 14 14 15 15 15 15 15 16 16 17 18 19 20 21 21 22 23 23 24 25 26 26 27 28
15 14 14 13 14 14 13 14 14 14 14 14 14 14 15 15 15 16 16 16 16 16 16 16 16 17 17 18 19 20 21 22 23 23 24 24 24 25 26 27 27 28 29
16 16 16 15 15 16 15 15 15 15 15 15 15 16 16 17 17 17 17 17 17 18 18 18 18 18 19 20 20 21 22 23 24 24 25 25 26 26 27 27 28 28 29
19 18 18 17 17 17 17 17 16 16 16 16 17 17 18 18 19 19 19 19 19 19 20 20 21 21 21 21 22 22 23 24 25 25 26 26 27 27 28 28 29 29 30
20 20 20 19 19 19 18 19 19 19 18 19 19 19 19 19 20 20 20 21 21 21 22 22 23 23 23 23 23 24 25 25 25 26 27 27 27 28 28 29 30 30 31
22 21 21 21 20 20 20 20 20 21 21 20 20 20 20 21 21 21 21 22 22 23 23 24 25 25 25 25 25 26 26 27 27 28 28 28 29 29 29 29 30 30 31
24 23 23 22 22 22 22 22 22 22 23 23 23 23 22 22 22 22 23 23 23 24 25 25 25 26 26 26 27 27 28 28 28 29 29 29 30 30 30 31 32 32 33
25 25 24 24 24 24 24 24 23 23 24 24 24 24 24 24 24 23 24 25 25 26 26 26 26 27 27 28 28 29 28 28 29 29 30 30 30 31 31 32 32 33 34
26 26 26 26 26 26 25 25 25 25 25 25 26 26 26 26 26 26 26 27 27 28 27 27 27 28 28 29 29 29 29 29 30 30 31 31 32 32 32 33 33 34 34
28 28 28 28 28 27 26 27 27 27 27 27 27 28 28 28 28 28 28 28 28 29 29 29 29 30 30 30 30 30 30 30 31 32 32 33 33 34 34 35 35 36 36
29 29 29 30 29 28 28 28 28 28 29 29 29 30 30 30 30 30 30 30 30 30 30 30 31 31 31 31 31 31 31 32 32 33 33 34 35 35 36 36 37 37 37
30 30 30 30 29 29 29 29 30 30 30 31 31 31 31 31 31 31 31 31 32 32 32 32 33 33 33 33 33 32 32 33 33 34 34 35 35 36 37 37 37 37 37
31 30 31 31 31 31 31 31 31 31 31 31 31 31 32 32 32 32 32 33 33 34 34 34 34 35 35 35 35 34 34 34 35 35 35 36 36 37 38 38 38 38 37
31 31 31 31 32 33 32 33 33 33 32 32 32 33 34 34 34 34 34 34 34 35 35 35 35 35 35 36 36 36 36 36 36 36 37 37 38 38 38 38 38 38 38
32 32 32 32 32 33 34 34 34 34 34 34 34 34 35 35 35 35 35 35 35 34 35 35 35 35 35 36 36 36 36 36 37 38 38 38 38 38 37 37 37 37 37
33 34 33 33 33 33 34 34 34 34 34 34 35 35 35 36 36 36 36 35 35 35 35 36 36 36 36 36 36 36 36 37 37 38 38 37 37 37 37 37 36 37 37
35 35 34 34 34 34 34 35 35 35 36 36 35 35 36 36 36 36 36 36 36 36 36 36 36 36 36 36 36 36 37 37 37 37 37 37 37 37 37 37 36 37 37
35 35 35 35 35 35 35 36 36 37 37 37 36 36 36 36 36 36 36 36 36 36 36 37 37 36 37 37 36 37 37 37 37 37 37 37 37 37 37 36 36 36 36
Wind_Direction
295 299 300 288 280 279 280 284 293 297 293 284 274 270 274 276 275 272 276 280 281 286 284 280 278 278 281 285 285 283 281 283 286 289 290 291 292 290 290 295 296 296 296
293 292 299 300 291 288 283 281 283 285 285 283 277 274 275 277 278 274 268 270 276 279 281 282 281 280 281 285 288 289 289 290 289 289 289 291 292 293 292 294 295 296 297
285 287 287 292 293 294 292 291 290 288 285 284 279 277 278 279 282 277 267 270 276 278 279 281 282 283 284 287 288 290 292 292 290 290 291 292 292 293 293 294 295 296 297
285 283 283 284 288 291 291 291 291 290 287 285 282 282 282 281 282 277 275 278 279 278 279 280 282 284 285 288 289 290 292 291 291 292 293 293 293 295 295 295 295 296 296
280 279 280 281 284 285 286 286 286 285 284 281 280 281 283 282 282 280 280 282 282 282 283 284 284 285 287 288 290 291 292 292 291 292 294 294 295 296 296 295 296 296 297
276 277 278 278 281 284 284 283 283 281 280 279 279 277 276 276 276 278 280 283 285 285 286 288 287 287 288 289 289 291 292 294 294 294 294 295 296 296 295 295 296 296 297
278 277 276 277 278 280 280 280 280 280 279 275 273 273 273 274 276 279 281 282 284 285 286 288 288 287 288 290 290 292 293 294 296 296 296 296 295 295 295 296 296 296 297
275 273 273 274 276 273 274 275 276 276 275 274 272 271 273 275 276 279 281 284 286 287 287 289 289 287 288 290 290 291 293 294 296 296 296 297 297 296 296 297 298 298 298
274 271 271 271 271 271 271 271 272 273 274 273 272 271 271 272 274 278 280 284 286 287 287 287 287 288 290 291 291 292 294 297 298 297 297 298 300 299 299 299 299 299 299
272 270 271 270 269 269 270 270 271 272 274 274 271 270 273 275 276 278 281 282 284 286 287 287 288 289 290 292 292 294 296 298 298 298 299 299 300 301 300 300 301 300 300
271 269 269 270 269 271 272 271 269 271 274 275 273 272 274 276 277 279 281 282 284 286 287 288 290 290 292 293 295 296 297 297 297 298 300 300 301 302 302 302 302 302 303
271 269 268 268 268 269 270 270 271 271 273 276 278 277 277 279 279 278 280 281 283 285 287 288 290 291 292 294 296 297 298 299 298 299 300 301 301 301 302 301 301 302 303
269 269 268 267 267 266 266 268 270 272 272 275 277 278 279 279 279 278 279 280 282 284 287 288 289 291 292 293 295 297 298 299 299 299 300 300 301 301 300 300 302 303 303
268 268 268 267 266 265 265 267 269 271 272 273 276 277 279 279 279 279 279 280 282 284 287 289 289 290 291 292 294 296 298 299 298 298 298 299 299 299 299 300 301 302 302
268 268 267 266 266 266 267 267 267 269 270 272 274 276 278 279 279 278 278 279 281 283 287 289 289 289 290 292 294 295 296 298 298 298 298 299 299 299 299 299 300 301 301
267 267 266 266 265 265 266 267 269 269 270 271 273 275 276 278 279 278 278 280 281 283 285 286 287 288 289 290 292 293 295 297 298 297 297 298 299 300 300 300 300 300 301
266 266 264 265 266 265 266 267 269 270 270 270 271 272 274 276 277 279 280 281 283 284 285 284 286 287 289 290 290 291 292 295 297 297 298 298 299 300 300 300 301 302 302
266 265 265 265 267 266 265 265 267 269 269 269 270 272 274 275 277 279 281 282 283 284 285 285 285 287 289 289 289 289 291 294 296 297 298 298 298 299 300 300 301 302 302
266 266 266 264 264 264 263 263 265 267 269 269 270 273 274 276 277 279 281 282 283 284 284 284 285 286 288 289 289 289 291 292 294 296 297 297 297 299 300 301 301 301 302
266 265 263 263 263 264 265 266 267 269 269 270 270 272 273 275 277 279 280 281 282 283 283 284 284 285 286 287 288 289 291 292 293 295 296 296 297 298 300 301 301 300 301
266 266 263 261 261 264 266 267 268 269 270 271 271 271 272 275 277 278 279 280 281 282 283 283 284 284 285 286 286 288 289 290 291 293 294 295 297 298 300 301 301 301 302
266 267 265 263 261 263 266 267 268 269 270 272 272 272 273 275 277 278 278 280 281 282 283 283 284 285 285 286 285 287 289 289 290 291 292 294 296 298 299 300 301 301 302
266 266 266 265 264 264 266 267 268 270 271 271 272 273 274 276 277 278 279 280 281 282 283 283 283 284 285 286 286 287 288 289 290 291 292 293 295 297 298 299 300 301 302
265 266 266 265 266 265 265 266 268 270 271 272 272 273 275 276 277 278 279 279 279 280 281 282 283 284 285 286 287 287 288 290 291 292 293 294 295 296 297 298 299 300 301
266 266 265 265 265 267 266 266 268 269 271 272 273 274 275 277 278 279 279 279 278 279 280 282 283 283 285 286 287 288 288 289 291 292 293 294 294 295 297 297 297 299 301
266 266 264 264 266 268 268 268 269 269 270 271 273 274 276 277 278 279 279 279 279 279 280 281 282 283 284 286 287 288 289 288 289 291 293 294 294 295 297 297 297 298 299
Height
5839 5839 5838 5838 5837 5837 5836 5836 5836 5835 5834 5833 5833 5833 5832 5832 5832 5831 5831 5831 5830 5830 5829 5829 5828 5828 5827 5827 5826 5825 5825 5824 5823 5823 5822 5821 5820 5819 5818 5816 5815 5813 5811
5838 5837 5837 5836 5836 5835 5835 5834 5834 5833 5833 5832 5832 5831 5831 5830 5830 5829 5829 5829 5828 5828 5827 5827 5826 5825 5825 5824 5824 5823 5822 5821 5820 5820 5819 5818 5816 5815 5814 5812 5810 5809 5807
5836 5836 5835 5835 5834 5834 5833 5833 5832 5831 5831 5830 5829 5829 5829 5828 5827 5827 5827 5827 5826 5825 5825 5824 5824 5823 5823 5822 5821 5820 5819 5818 5817 5816 5815 5814 5812 5811 5809 5808 5806 5804 5802
5834 5834 5833 5833 5832 5832 5831 5831 5830 5829 5828 5828 5827 5827 5826 5826 5825 5825 5825 5824 5824 5823 5822 5822 5821 5821 5820 5819 5818 5817 5816 5815 5814 5813 5811 5810 5808 5806 5805 5803 5801 5799 5796
5832 5831 5831 5830 5830 5829 5829 5828 5827 5827 5826 5826 5825 5825 5824 5824 5823 5823 5822 5822 5821 5821 5820 5819 5819 5818 5817 5816 5815 5814 5813 5811 5810 5808 5807 5805 5803 5801 5799 5797 5795 5793 5790
5829 5828 5828 5827 5827 5826 5826 5825 5825 5824 5824 5823 5823 5822 5822 5821 5821 5820 5820 5819 5818 5818 5817 5816 5815 5814 5813 5812 5811 5810 5809 5807 5806 5804 5802 5800 5798 5796 5794 5791 5789 5787 5784
5825 5825 5824 5824 5824 5823 5823 5822 5822 5821 5821 5821 5820 5820 5819 5819 5818 5818 5817 5816 5816 5815 5814 5813 5812 5811 5810 5808 5807 5806 5804 5802 5801 5799 5797 5794 5792 5790 5788 5785 5782 5780 5777
5821 5821 5821 5821 5820 5820 5819 5819 5819 5818 5818 5817 5817 5817 5816 5816 5815 5815 5814 5813 5812 5811 5810 5809 5808 5807 5806 5804 5803 5801 5799 5797 5795 5793 5791 5789 5786 5783 5781 5778 5775 5773 5770
5817 5817 5817 5817 5816 5816 5815 5815 5815 5815 5814 5814 5813 5813 5813 5812 5812 5811 5810 5809 5808 5807 5806 5805 5804 5803 5801 5800 5798 5796 5794 5792 5789 5787 5785 5782 5779 5776 5773 5771 5768 5765 5762
5813 5812 5812 5812 5812 5812 5811 5811 5811 5810 5810 5810 5809 5809 5808 5808 5807 5806 5806 5805 5804 5803 5802 5801 5799 5798 5796 5794 5793 5791 5789 5786 5784 5781 5778 5775 5772 5769 5766 5763 5760 5757 5754
5808 5808 5807 5807 5807 5807 5807 5806 5806 5806 5805 5805 5805 5804 5803 5803 5802 5802 5801 5800 5799 5798 5797 5795 5794 5792 5791 5789 5787 5785 5782 5780 5777 5774 5771 5768 5765 5762 5759 5755 5752 5749 5746
5802 5802 5802 5802 5802 5802 5801 5801 5801 5801 5800 5800 5799 5799 5798 5798 5797 5796 5795 5794 5793 5792 5791 5790 5788 5786 5784 5782 5780 5778 5775 5773 5770 5767 5764 5761 5758 5755 5751 5748 5744 5741 5737
5796 5796 5796 5796 5796 5796 5796 5795 5795 5795 5795 5794 5794 5793 5792 5792 5791 5790 5789 5788 5787 5786 5785 5783 5781 5780 5778 5776 5773 5771 5768 5765 5762 5760 5757 5754 5750 5747 5744 5740 5737 5733 5729
5789 5790 5790 5790 5789 5789 5789 5789 5789 5789 5789 5788 5787 5787 5786 5785 5784 5783 5782 5781 5780 5779 5778 5776 5774 5772 5770 5768 5766 5763 5760 5758 5755 5752 5749 5746 5742 5739 5736 5732 5729 5725 5721
5782 5782 5782 5783 5782 5782 5782 5782 5782 5782 5781 5781 5781 5780 5779 5778 5777 5776 5775 5774 5773 5771 5770 5768 5766 5765 5763 5760 5758 5755 5752 5750 5747 5744 5740 5737 5734 5730 5727 5723 5720 5716 5712
5774 5774 5774 5775 5775 5775 5775 5775 5774 5774 5774 5774 5773 5773 5772 5771 5770 5768 5767 5766 5765 5763 5762 5760 5758 5756 5754 5752 5750 5747 5744 5741 5738 5735 5732 5729 5725 5722 5718 5714 5710 5706 5702
5765 5766 5766 5766 5766 5766 5766 5766 5766 5766 5766 5766 5765 5765 5764 5763 5762 5761 5759 5758 5756 5755 5753 5751 5750 5748 5746 5743 5741 5738 5735 5732 5729 5726 5723 5719 5716 5712 5709 5705 5700 5696 5692
5756 5756 5756 5757 5757 5757 5758 5758 5758 5758 5758 5757 5757 5756 5755 5754 5753 5752 5751 5749 5748 5746 5744 5743 5741 5739 5736 5734 5731 5729 5726 5723 5720 5717 5713 5710 5706 5702 5699 5695 5690 5686 5682
5746 5746 5746 5747 5747 5748 5748 5749 5749 5749 5748 5748 5748 5747 5746 5745 5744 5743 5741 5740 5739 5737 5735 5733 5731 5729 5727 5724 5722 5719 5717 5714 5711 5707 5704 5700 5696 5692 5688 5684 5679 5675 5670
5735 5735 5736 5736 5737 5738 5738 5739 5739 5739 5739 5738 5738 5737 5736 5735 5734 5733 5732 5730 5729 5727 5725 5723 5721 5718 5716 5714 5711 5709 5706 5703 5700 5697 5694 5690 5686 5682 5677 5673 5668 5664 5660
5725 5725 5725 5726 5727 5728 5728 5728 5728 5729 5728 5728 5728 5727 5726 5725 5724 5723 5721 5720 5718 5716 5714 5712 5710 5708 5705 5703 5700 5698 5695 5693 5690 5686 5683 5679 5675 5671 5666 5662 5657 5653 5648
5714 5714 5715 5715 5716 5717 5717 5717 5717 5717 5717 5717 5716 5716 5715 5714 5713 5712 5710 5709 5707 5705 5703 5701 5699 5696 5694 5691 5689 5687 5684 5681 5678 5675 5672 5668 5664 5660 5655 5651 5646 5642 5638
5703 5703 5704 5704 5705 5705 5706 5706 5706 5706 5706 5705 5705 5704 5703 5702 5701 5700 5699 5697 5695 5693 5691 5688 5687 5684 5682 5679 5677 5675 5672 5669 5666 5663 5659 5656 5652 5648 5644 5639 5635 5631 5627
5692 5692 5692 5693 5693 5693 5694 5694 5694 5694 5694 5693 5693 5692 5691 5690 5689 5688 5686 5684 5683 5681 5679 5677 5675 5673 5670 5667 5665 5662 5660 5657 5654 5650 5647 5644 5640 5636 5632 5628 5624 5620 5616
5680 5680 5681 5681 5681 5681 5681 5682 5682 5682 5681 5681 5680 5680 5679 5678 5676 5675 5673 5672 5670 5669 5667 5665 5663 5660 5658 5656 5653 5650 5648 5645 5641 5638 5635 5632 5628 5625 5621 5617 5613 5609 5605
5668 5668 5669 5669 5669 5669 5669 5669 5669 5669 5669 5668 5668 5667 5666 5665 5664 5662 5661 5659 5657 5656 5654 5652 5650 5648 5646 5644 5641 5638 5636 5633 5630 5626 5623 5620 5617 5613 5609 5605 5602 5598 5595